| time (UTC) | temp C | wind direction | speed KPH | gust KPH | rain 1hr cm | rain 24hr cm | rain mn cm | humidity % | barometer mb |
| 20260502130525 | 21 | 132 | 3.2 | 11.3 | 0.00 | 0.00 | 0.00 | 50 | 1014.5 |
| 20260502123522 | 21 | 19 | 0.0 | 4.8 | 0.00 | 0.00 | 0.00 | 56 | 1014.8 |
| 20260502123033 | 21 | 360 | 0.0 | 4.8 | 0.00 | 0.00 | 0.00 | 56 | 1014.8 |
| 20260502122525 | 22 | 76 | 1.6 | 4.8 | 0.00 | 0.00 | 0.00 | 54 | 1014.9 |
| 20260502122018 | 21 | 18 | 1.6 | 4.8 | 0.00 | 0.00 | 0.00 | 59 | 1015.1 |
| 20260502121519 | 21 | 105 | 0.0 | 3.2 | 0.00 | 0.00 | 0.00 | 55 | 1015.2 |
| 20260502121018 | 20 | 151 | 0.0 | 4.8 | 0.00 | 0.00 | 0.00 | 56 | 1015.2 |
| 20260502120519 | 20 | 58 | 0.0 | 4.8 | 0.00 | 0.00 | 0.00 | 55 | 1015.2 |
| 20260502115617 | 20 | 46 | 0.0 | 3.2 | 0.00 | 0.00 | 0.00 | 57 | 1015.4 |
| 20260502115013 | 20 | 208 | 0.0 | 4.8 | 0.00 | 0.00 | 0.00 | 58 | 1015.5 |
| 20260502114513 | 19 | 180 | 0.0 | 4.8 | 0.00 | 0.00 | 0.00 | 58 | 1015.6 |
| 20260502114013 | 19 | 52 | 0.0 | 4.8 | 0.00 | 0.00 | 0.00 | 58 | 1015.7 |
| 20260502113514 | 20 | 93 | 0.0 | 4.8 | 0.00 | 0.00 | 0.00 | 57 | 1015.7 |
| 20260502113009 | 18 | 360 | 0.0 | 4.8 | 0.00 | 0.00 | 0.00 | 61 | 1016.1 |
| 20260502112508 | 18 | 112 | 0.0 | 6.4 | 0.00 | 0.00 | 0.00 | 59 | 1016.2 |
| 20260502112008 | 18 | 143 | 1.6 | 6.4 | 0.00 | 0.00 | 0.00 | 56 | 1016.2 |
| 20260502111510 | 18 | 350 | 0.0 | 6.4 | 0.00 | 0.00 | 0.00 | 60 | 1016.1 |
| 20260502111007 | 18 | 90 | 1.6 | 6.4 | 0.00 | 0.00 | 0.00 | 59 | 1016.2 |
| 20260502110507 | 18 | 128 | 1.6 | 6.4 | 0.00 | 0.00 | 0.00 | 62 | 1016.2 |
| 20260502110010 | 18 | 190 | 0.0 | 3.2 | 0.00 | 0.00 | 0.00 | 60 | 1016.2 |
| 20260502105506 | 18 | 348 | 0.0 | 8.0 | 0.00 | 0.00 | 0.00 | 61 | 1016.3 |
| 20260502105003 | 18 | 188 | 1.6 | 8.0 | 0.00 | 0.00 | 0.00 | 61 | 1016.4 |
| 20260502104503 | 18 | 19 | 1.6 | 4.8 | 0.00 | 0.00 | 0.00 | 64 | 1016.6 |
| 20260502104002 | 18 | 192 | 0.0 | 3.2 | 0.00 | 0.00 | 0.00 | 65 | 1016.6 |
| 20260502103502 | 17 | 315 | 0.0 | 4.8 | 0.00 | 0.00 | 0.00 | 66 | 1016.7 |
| 20260502103113 | 17 | 126 | 0.0 | 6.4 | 0.00 | 0.00 | 0.00 | 65 | 1016.9 |
| 20260502102559 | 17 | 191 | 0.0 | 6.4 | 0.00 | 0.00 | 0.00 | 66 | 1016.8 |
| 20260502102057 | 17 | 11 | 0.0 | 6.4 | 0.00 | 0.00 | 0.00 | 66 | 1016.8 |
| 20260502101613 | 16 | 150 | 1.6 | 6.4 | 0.00 | 0.00 | 0.00 | 66 | 1016.9 |
| 20260502101055 | 16 | 182 | 0.0 | 3.2 | 0.00 | 0.00 | 0.00 | 67 | 1016.9 |
| 20260502100554 | 16 | 76 | 0.0 | 3.2 | 0.00 | 0.00 | 0.00 | 68 | 1017.0 |
| 20260502100123 | 17 | 241 | 0.0 | 9.7 | 0.00 | 0.00 | 0.00 | 71 | 1017.1 |
| 20260502091047 | 15 | 157 | 0.0 | 3.2 | 0.00 | 0.00 | 0.00 | 75 | 1017.5 |
| 20260502090542 | 13 | 210 | 1.6 | 4.8 | 0.00 | 0.00 | 0.00 | 77 | 1017.6 |
| 20260502071521 | 9 | 182 | 0.0 | 3.2 | 0.00 | 0.00 | 0.00 | 93 | 1018.3 |
| 20260502071022 | 9 | 171 | 0.0 | 3.2 | 0.00 | 0.00 | 0.00 | 93 | 1018.2 |
| 20260502070521 | 9 | 203 | 0.0 | 4.8 | 0.00 | 0.00 | 0.00 | 94 | 1018.1 |
| 20260502070020 | 9 | 196 | 0.0 | 4.8 | 0.00 | 0.00 | 0.00 | 94 | 1018.2 |
| 20260502065520 | 8 | 183 | 1.6 | 4.8 | 0.00 | 0.00 | 0.00 | 94 | 1018.2 |
| 20260502065019 | 8 | 178 | 0.0 | 4.8 | 0.00 | 0.00 | 0.00 | 94 | 1018.2 |
| 20260502064521 | 9 | 192 | 0.0 | 4.8 | 0.00 | 0.00 | 0.00 | 95 | 1018.2 |
| 20260502064023 | 8 | 182 | 0.0 | 4.8 | 0.00 | 0.00 | 0.00 | 95 | 1018.3 |
| 20260502063517 | 8 | 184 | 0.0 | 4.8 | 0.00 | 0.00 | 0.00 | 95 | 1018.4 |
| 20260502063017 | 8 | 197 | 1.6 | 4.8 | 0.00 | 0.00 | 0.00 | 95 | 1018.2 |
| 20260502062517 | 8 | 175 | 1.6 | 6.4 | 0.00 | 0.00 | 0.00 | 95 | 1018.2 |
| 20260502062016 | 8 | 215 | 1.6 | 3.2 | 0.00 | 0.00 | 0.00 | 95 | 1018.2 |
| 20260502061530 | 8 | 178 | 0.0 | 6.4 | 0.00 | 0.00 | 0.00 | 95 | 1018.3 |
| 20260502061015 | 8 | 194 | 1.6 | 6.4 | 0.00 | 0.00 | 0.00 | 95 | 1018.3 |
| 20260502060514 | 8 | 181 | 1.6 | 6.4 | 0.00 | 0.00 | 0.00 | 95 | 1018.3 |
| 20260502060016 | 8 | 233 | 1.6 | 4.8 | 0.00 | 0.00 | 0.00 | 95 | 1018.2 |
| 20260502055513 | 8 | 150 | 1.6 | 3.2 | 0.00 | 0.00 | 0.00 | 95 | 1018.2 |
| 20260502055013 | 8 | 197 | 0.0 | 3.2 | 0.00 | 0.00 | 0.00 | 95 | 1018.2 |
| 20260502054512 | 8 | 184 | 0.0 | 4.8 | 0.00 | 0.00 | 0.00 | 95 | 1018.2 |
| 20260502054014 | 8 | 176 | 0.0 | 4.8 | 0.00 | 0.00 | 0.00 | 95 | 1018.2 |
| 20260502053510 | 8 | 211 | 0.0 | 3.2 | 0.00 | 0.00 | 0.00 | 95 | 1018.2 |
| 20260502053009 | 8 | 190 | 0.0 | 3.2 | 0.00 | 0.00 | 0.00 | 95 | 1018.2 |
| 20260502052508 | 8 | 184 | 0.0 | 3.2 | 0.00 | 0.00 | 0.00 | 95 | 1018.2 |
| 20260502052008 | 8 | 186 | 0.0 | 1.6 | 0.00 | 0.00 | 0.00 | 95 | 1018.2 |
| 20260502051517 | 8 | 205 | 0.0 | 0.0 | 0.00 | 0.00 | 0.00 | 94 | 1018.2 |
| 20260502051007 | 8 | 205 | 0.0 | 3.2 | 0.00 | 0.00 | 0.00 | 95 | 1018.3 |
| 20260502050512 | 8 | 183 | 0.0 | 3.2 | 0.00 | 0.00 | 0.00 | 94 | 1018.2 |
| 20260502050006 | 8 | 173 | 0.0 | 4.8 | 0.00 | 0.00 | 0.00 | 94 | 1018.2 |
| 20260502045508 | 8 | 186 | 0.0 | 6.4 | 0.00 | 0.00 | 0.00 | 94 | 1018.1 |
| 20260502045005 | 8 | 184 | 1.6 | 6.4 | 0.00 | 0.00 | 0.00 | 94 | 1018.2 |
| 20260502044504 | 8 | 185 | 1.6 | 4.8 | 0.00 | 0.00 | 0.00 | 94 | 1018.1 |
| 20260502044003 | 8 | 184 | 0.0 | 1.6 | 0.00 | 0.00 | 0.00 | 94 | 1018.1 |
| 20260502043503 | 8 | 140 | 0.0 | 3.2 | 0.00 | 0.00 | 0.00 | 94 | 1018.1 |
| 20260502043003 | 8 | 192 | 0.0 | 3.2 | 0.00 | 0.00 | 0.00 | 94 | 1018.1 |
| 20260502042502 | 8 | 192 | 0.0 | 4.8 | 0.00 | 0.00 | 0.00 | 94 | 1018.1 |
| 20260502042004 | 8 | 224 | 1.6 | 4.8 | 0.00 | 0.00 | 0.00 | 94 | 1018.2 |
| 20260502041609 | 8 | 350 | 0.0 | 3.2 | 0.00 | 0.00 | 0.00 | 94 | 1018.2 |
| 20260502041059 | 8 | 213 | 0.0 | 3.2 | 0.00 | 0.00 | 0.00 | 94 | 1018.2 |
| 20260502040559 | 8 | 150 | 0.0 | 3.2 | 0.00 | 0.00 | 0.00 | 94 | 1018.3 |
| 20260502040100 | 8 | 215 | 0.0 | 3.2 | 0.00 | 0.00 | 0.00 | 94 | 1018.3 |
| 20260502035559 | 8 | 200 | 0.0 | 8.0 | 0.00 | 0.00 | 0.00 | 94 | 1018.3 |
| 20260502035059 | 8 | 197 | 0.0 | 8.0 | 0.00 | 0.00 | 0.00 | 94 | 1018.3 |
| 20260502034600 | 8 | 173 | 0.0 | 9.7 | 0.00 | 0.00 | 0.00 | 94 | 1018.3 |
| 20260502034058 | 8 | 238 | 1.6 | 4.8 | 0.00 | 0.00 | 0.00 | 94 | 1018.4 |
| 20260502033556 | 8 | 203 | 0.0 | 6.4 | 0.00 | 0.00 | 0.00 | 94 | 1018.4 |
| 20260502033055 | 8 | 188 | 0.0 | 6.4 | 0.00 | 0.00 | 0.00 | 94 | 1018.5 |
| 20260502032555 | 8 | 196 | 0.0 | 6.4 | 0.00 | 0.00 | 0.00 | 94 | 1018.4 |
| 20260502032054 | 8 | 91 | 0.0 | 9.7 | 0.00 | 0.00 | 0.00 | 94 | 1018.4 |
| 20260502031555 | 8 | 200 | 0.0 | 6.4 | 0.00 | 0.00 | 0.00 | 94 | 1018.5 |
| 20260502031053 | 8 | 200 | 3.2 | 6.4 | 0.00 | 0.00 | 0.00 | 94 | 1018.4 |
| 20260502030553 | 8 | 188 | 0.0 | 6.4 | 0.00 | 0.00 | 0.00 | 94 | 1018.5 |
| 20260502030055 | 8 | 183 | 0.0 | 6.4 | 0.00 | 0.00 | 0.00 | 94 | 1018.5 |
| 20260502025551 | 8 | 146 | 0.0 | 6.4 | 0.00 | 0.00 | 0.00 | 94 | 1018.5 |
| 20260502025051 | 8 | 180 | 0.0 | 8.0 | 0.00 | 0.00 | 0.00 | 94 | 1018.6 |
| 20260502024601 | 8 | 189 | 1.6 | 8.0 | 0.00 | 0.00 | 0.00 | 94 | 1018.5 |
| 20260502024052 | 8 | 317 | 0.0 | 8.0 | 0.00 | 0.00 | 0.00 | 93 | 1018.5 |
| 20260502023551 | 8 | 180 | 0.0 | 8.0 | 0.00 | 0.00 | 0.00 | 93 | 1018.5 |
| 20260502023050 | 8 | 169 | 1.6 | 8.0 | 0.00 | 0.00 | 0.00 | 93 | 1018.6 |
| 20260502022548 | 8 | 244 | 0.0 | 6.4 | 0.00 | 0.00 | 0.00 | 93 | 1018.6 |
| 20260502022048 | 8 | 165 | 3.2 | 8.0 | 0.00 | 0.00 | 0.00 | 93 | 1018.6 |
| 20260502021551 | 8 | 214 | 1.6 | 8.0 | 0.00 | 0.00 | 0.00 | 93 | 1018.7 |
| 20260502021048 | 8 | 215 | 1.6 | 8.0 | 0.00 | 0.00 | 0.00 | 93 | 1018.7 |
| 20260502020548 | 8 | 215 | 1.6 | 6.4 | 0.00 | 0.00 | 0.00 | 93 | 1018.7 |
| 20260502020047 | 9 | 243 | 1.6 | 6.4 | 0.00 | 0.00 | 0.00 | 93 | 1018.7 |
| 20260502015548 | 9 | 163 | 1.6 | 9.7 | 0.00 | 0.00 | 0.00 | 93 | 1018.7 |
| 20260502015047 | 9 | 198 | 3.2 | 9.7 | 0.00 | 0.00 | 0.00 | 93 | 1018.7 |
| 20260502014547 | 8 | 230 | 1.6 | 9.7 | 0.00 | 0.00 | 0.00 | 93 | 1018.6 |
| 20260502014046 | 8 | 208 | 1.6 | 8.0 | 0.00 | 0.00 | 0.00 | 92 | 1018.7 |
| 20260502013545 | 8 | 207 | 0.0 | 6.4 | 0.00 | 0.00 | 0.00 | 92 | 1018.7 |
| 20260502013045 | 8 | 95 | 0.0 | 6.4 | 0.00 | 0.00 | 0.00 | 92 | 1018.7 |
| 20260502012547 | 8 | 202 | 0.0 | 6.4 | 0.00 | 0.00 | 0.00 | 92 | 1018.7 |
| 20260502012045 | 8 | 211 | 1.6 | 4.8 | 0.00 | 0.00 | 0.00 | 92 | 1018.7 |
| 20260502011544 | 8 | 184 | 1.6 | 4.8 | 0.00 | 0.00 | 0.00 | 92 | 1018.8 |
| 20260502011043 | 8 | 192 | 0.0 | 6.4 | 0.00 | 0.00 | 0.00 | 92 | 1018.9 |
| 20260502010545 | 8 | 271 | 0.0 | 6.4 | 0.00 | 0.00 | 0.00 | 92 | 1019.0 |
| 20260502010042 | 8 | 202 | 0.0 | 3.2 | 0.00 | 0.00 | 0.00 | 91 | 1018.9 |
| 20260502005541 | 8 | 202 | 0.0 | 3.2 | 0.00 | 0.00 | 0.00 | 91 | 1019.0 |
| 20260502005041 | 8 | 202 | 0.0 | 3.2 | 0.00 | 0.00 | 0.00 | 91 | 1019.1 |
| 20260502004541 | 8 | 201 | 0.0 | 3.2 | 0.00 | 0.00 | 0.00 | 91 | 1019.0 |
| 20260502004040 | 8 | 205 | 0.0 | 3.2 | 0.00 | 0.00 | 0.00 | 91 | 1019.2 |
| 20260502003539 | 8 | 246 | 0.0 | 3.2 | 0.00 | 0.00 | 0.00 | 90 | 1019.1 |
| 20260502003038 | 8 | 250 | 0.0 | 3.2 | 0.00 | 0.00 | 0.00 | 90 | 1019.2 |
| 20260502002537 | 9 | 250 | 0.0 | 3.2 | 0.00 | 0.00 | 0.00 | 90 | 1019.2 |
| 20260502002035 | 9 | 317 | 0.0 | 3.2 | 0.00 | 0.00 | 0.00 | 90 | 1019.2 |
| 20260502001535 | 10 | 244 | 0.0 | 3.2 | 0.00 | 0.00 | 0.00 | 90 | 1019.3 |
| 20260502001034 | 10 | 205 | 0.0 | 6.4 | 0.00 | 0.00 | 0.00 | 90 | 1019.4 |
| 20260502000533 | 10 | 192 | 0.0 | 6.4 | 0.00 | 0.00 | 0.00 | 90 | 1019.4 |
| 20260502000034 | 10 | 224 | 1.6 | 4.8 | 0.00 | 0.00 | 0.00 | 90 | 1019.4 |
| 20260501235531 | 10 | 180 | 0.0 | 9.7 | 0.00 | 0.00 | 0.00 | 90 | 1019.4 |
| 20260501235031 | 10 | 161 | 1.6 | 4.8 | 0.00 | 0.00 | 0.00 | 90 | 1019.5 |
| 20260501234530 | 10 | 179 | 1.6 | 8.0 | 0.00 | 0.00 | 0.00 | 90 | 1019.5 |
| 20260501234032 | 10 | 241 | 1.6 | 8.0 | 0.00 | 0.00 | 0.00 | 90 | 1019.6 |
| 20260501233530 | 10 | 181 | 0.0 | 8.0 | 0.00 | 0.00 | 0.00 | 90 | 1019.6 |
| 20260501233129 | 10 | 196 | 1.6 | 6.4 | 0.00 | 0.00 | 0.00 | 90 | 1019.6 |
| 20260501232526 | 10 | 193 | 0.0 | 6.4 | 0.00 | 0.00 | 0.00 | 89 | 1019.6 |
| 20260501232029 | 10 | 211 | 3.2 | 9.7 | 0.00 | 0.00 | 0.00 | 89 | 1019.6 |
| 20260501231525 | 10 | 219 | 1.6 | 9.7 | 0.00 | 0.00 | 0.00 | 89 | 1019.6 |
| 20260501231025 | 10 | 186 | 1.6 | 6.4 | 0.00 | 0.00 | 0.00 | 89 | 1019.7 |
| 20260501230523 | 10 | 223 | 0.0 | 6.4 | 0.00 | 0.00 | 0.00 | 89 | 1019.7 |
| 20260501230023 | 10 | 209 | 0.0 | 9.7 | 0.00 | 0.00 | 0.00 | 88 | 1019.7 |
| 20260501225523 | 10 | 168 | 0.0 | 6.4 | 0.00 | 0.00 | 0.00 | 88 | 1019.7 |
| 20260501225022 | 10 | 171 | 0.0 | 9.7 | 0.00 | 0.00 | 0.00 | 88 | 1019.7 |
| 20260501224522 | 10 | 184 | 3.2 | 9.7 | 0.00 | 0.00 | 0.00 | 88 | 1019.7 |
| 20260501224022 | 11 | 204 | 3.2 | 9.7 | 0.00 | 0.00 | 0.00 | 88 | 1019.7 |
| 20260501223523 | 11 | 192 | 3.2 | 8.0 | 0.00 | 0.00 | 0.00 | 88 | 1019.7 |
| 20260501223021 | 11 | 246 | 0.0 | 8.0 | 0.00 | 0.00 | 0.00 | 88 | 1019.7 |
| 20260501222524 | 11 | 216 | 3.2 | 8.0 | 0.00 | 0.00 | 0.00 | 87 | 1019.7 |
| 20260501222022 | 11 | 153 | 1.6 | 8.0 | 0.00 | 0.00 | 0.00 | 87 | 1019.7 |
| 20260501221520 | 11 | 196 | 0.0 | 11.3 | 0.00 | 0.00 | 0.00 | 87 | 1019.6 |
| 20260501221020 | 11 | 200 | 1.6 | 11.3 | 0.00 | 0.00 | 0.00 | 86 | 1019.5 |
| 20260501220521 | 11 | 182 | 1.6 | 8.0 | 0.00 | 0.00 | 0.00 | 86 | 1019.5 |
| 20260501220021 | 11 | 194 | 1.6 | 9.7 | 0.00 | 0.00 | 0.00 | 86 | 1019.5 |
| 20260501215520 | 11 | 231 | 3.2 | 8.0 | 0.00 | 0.00 | 0.00 | 85 | 1019.6 |
| 20260501215018 | 11 | 191 | 3.2 | 12.9 | 0.00 | 0.00 | 0.00 | 85 | 1019.6 |
| 20260501214519 | 11 | 232 | 3.2 | 12.9 | 0.00 | 0.00 | 0.00 | 85 | 1019.7 |
| 20260501214019 | 11 | 215 | 3.2 | 12.9 | 0.00 | 0.00 | 0.00 | 84 | 1019.8 |
| 20260501213519 | 11 | 171 | 4.8 | 12.9 | 0.00 | 0.00 | 0.00 | 83 | 1019.7 |
| 20260501213018 | 11 | 159 | 3.2 | 9.7 | 0.00 | 0.00 | 0.00 | 83 | 1019.7 |
| 20260501212518 | 11 | 294 | 4.8 | 9.7 | 0.00 | 0.00 | 0.00 | 82 | 1019.7 |
| 20260501212018 | 11 | 201 | 3.2 | 9.7 | 0.00 | 0.00 | 0.00 | 81 | 1019.6 |
| 20260501211518 | 12 | 179 | 3.2 | 8.0 | 0.00 | 0.00 | 0.00 | 81 | 1019.6 |
| 20260501211017 | 12 | 179 | 1.6 | 6.4 | 0.00 | 0.00 | 0.00 | 80 | 1019.6 |
| 20260501210517 | 12 | 148 | 1.6 | 9.7 | 0.00 | 0.00 | 0.00 | 79 | 1019.6 |
| 20260501210018 | 12 | 186 | 4.8 | 9.7 | 0.00 | 0.00 | 0.00 | 79 | 1019.5 |
| 20260501205520 | 12 | 186 | 3.2 | 9.7 | 0.00 | 0.00 | 0.00 | 78 | 1019.5 |
| 20260501205019 | 12 | 157 | 0.0 | 6.4 | 0.00 | 0.00 | 0.00 | 78 | 1019.5 |
| 20260501204518 | 12 | 160 | 1.6 | 8.0 | 0.00 | 0.00 | 0.00 | 77 | 1019.3 |
| 20260501204017 | 12 | 174 | 3.2 | 8.0 | 0.00 | 0.00 | 0.00 | 75 | 1019.4 |
| 20260501203517 | 13 | 207 | 1.6 | 8.0 | 0.00 | 0.00 | 0.00 | 75 | 1019.4 |
| 20260501203020 | 13 | 196 | 1.6 | 8.0 | 0.00 | 0.00 | 0.00 | 75 | 1019.5 |
| 20260501202516 | 13 | 189 | 1.6 | 8.0 | 0.00 | 0.00 | 0.00 | 75 | 1019.5 |
| 20260501202016 | 13 | 171 | 1.6 | 8.0 | 0.00 | 0.00 | 0.00 | 75 | 1019.4 |
| 20260501201516 | 13 | 199 | 1.6 | 4.8 | 0.00 | 0.00 | 0.00 | 75 | 1019.4 |
| 20260501201018 | 13 | 185 | 1.6 | 6.4 | 0.00 | 0.00 | 0.00 | 75 | 1019.3 |
| 20260501200515 | 13 | 171 | 0.0 | 3.2 | 0.00 | 0.00 | 0.00 | 75 | 1019.3 |
| 20260501200020 | 13 | 164 | 0.0 | 3.2 | 0.00 | 0.00 | 0.00 | 75 | 1019.4 |
| 20260501195515 | 13 | 177 | 0.0 | 3.2 | 0.00 | 0.00 | 0.00 | 75 | 1019.3 |
| 20260501195016 | 14 | 184 | 0.0 | 3.2 | 0.00 | 0.00 | 0.00 | 75 | 1019.3 |
| 20260501194515 | 14 | 191 | 0.0 | 3.2 | 0.00 | 0.00 | 0.00 | 75 | 1019.2 |
| 20260501194015 | 14 | 200 | 0.0 | 3.2 | 0.00 | 0.00 | 0.00 | 74 | 1019.2 |
| 20260501193515 | 15 | 227 | 0.0 | 3.2 | 0.00 | 0.00 | 0.00 | 73 | 1019.1 |
| 20260501193019 | 15 | 204 | 0.0 | 4.8 | 0.00 | 0.00 | 0.00 | 72 | 1019.1 |
| 20260501192513 | 15 | 163 | 0.0 | 6.4 | 0.00 | 0.00 | 0.00 | 72 | 1019.1 |
| 20260501192015 | 15 | 213 | 1.6 | 6.4 | 0.00 | 0.00 | 0.00 | 72 | 1019.1 |
| 20260501191514 | 15 | 168 | 1.6 | 6.4 | 0.00 | 0.00 | 0.00 | 71 | 1019.1 |
| 20260501191014 | 15 | 180 | 0.0 | 4.8 | 0.00 | 0.00 | 0.00 | 71 | 1019.0 |
| 20260501190519 | 16 | 188 | 0.0 | 4.8 | 0.00 | 0.00 | 0.00 | 70 | 1019.0 |
| 20260501190013 | 16 | 174 | 1.6 | 4.8 | 0.00 | 0.00 | 0.00 | 69 | 1019.0 |
| 20260501185515 | 16 | 181 | 0.0 | 4.8 | 0.00 | 0.00 | 0.00 | 69 | 1019.0 |
| 20260501185019 | 16 | 227 | 1.6 | 6.4 | 0.00 | 0.00 | 0.00 | 68 | 1018.9 |
| 20260501184520 | 16 | 171 | 0.0 | 6.4 | 0.00 | 0.00 | 0.00 | 67 | 1018.8 |
| 20260501184013 | 16 | 192 | 3.2 | 8.0 | 0.00 | 0.00 | 0.00 | 66 | 1018.8 |
| 20260501183513 | 16 | 167 | 0.0 | 11.3 | 0.00 | 0.00 | 0.00 | 66 | 1018.8 |
| 20260501183015 | 16 | 190 | 1.6 | 11.3 | 0.00 | 0.00 | 0.00 | 65 | 1018.8 |
| 20260501182511 | 17 | 147 | 1.6 | 8.0 | 0.00 | 0.00 | 0.00 | 66 | 1018.8 |
| 20260501182013 | 17 | 196 | 3.2 | 8.0 | 0.00 | 0.00 | 0.00 | 65 | 1018.8 |
| 20260501181511 | 17 | 211 | 1.6 | 9.7 | 0.00 | 0.00 | 0.00 | 66 | 1018.8 |
| 20260501181017 | 17 | 186 | 1.6 | 8.0 | 0.00 | 0.00 | 0.00 | 65 | 1018.8 |
| 20260501180511 | 17 | 229 | 3.2 | 11.3 | 0.00 | 0.00 | 0.00 | 65 | 1018.8 |
| 20260501180016 | 17 | 220 | 3.2 | 14.5 | 0.00 | 0.00 | 0.00 | 65 | 1018.8 |
| 20260501175512 | 17 | 168 | 4.8 | 14.5 | 0.00 | 0.00 | 0.00 | 64 | 1018.9 |
| 20260501175016 | 17 | 208 | 3.2 | 12.9 | 0.00 | 0.00 | 0.00 | 64 | 1018.9 |
| 20260501174532 | 17 | 208 | 6.4 | 12.9 | 0.00 | 0.00 | 0.00 | 64 | 1018.8 |
| 20260501174012 | 17 | 134 | 4.8 | 12.9 | 0.00 | 0.00 | 0.00 | 64 | 1018.8 |
| 20260501173510 | 17 | 207 | 4.8 | 17.7 | 0.00 | 0.00 | 0.00 | 64 | 1018.9 |
| 20260501173009 | 17 | 136 | 6.4 | 17.7 | 0.00 | 0.00 | 0.00 | 64 | 1018.9 |
| 20260501172510 | 17 | 200 | 4.8 | 14.5 | 0.00 | 0.00 | 0.00 | 64 | 1018.9 |
| 20260501172009 | 18 | 167 | 1.6 | 16.1 | 0.00 | 0.00 | 0.00 | 65 | 1019.0 |
| 20260501171510 | 18 | 178 | 4.8 | 16.1 | 0.00 | 0.00 | 0.00 | 64 | 1018.9 |
| 20260501171011 | 18 | 184 | 6.4 | 16.1 | 0.00 | 0.00 | 0.00 | 64 | 1019.0 |
| 20260501170509 | 18 | 170 | 4.8 | 16.1 | 0.00 | 0.00 | 0.00 | 64 | 1018.9 |
| 20260501170008 | 18 | 196 | 4.8 | 12.9 | 0.00 | 0.00 | 0.00 | 65 | 1018.9 |
| 20260501165510 | 18 | 178 | 3.2 | 17.7 | 0.00 | 0.00 | 0.00 | 65 | 1018.9 |
| 20260501165008 | 18 | 186 | 6.4 | 17.7 | 0.00 | 0.00 | 0.00 | 64 | 1018.9 |
| 20260501164508 | 18 | 198 | 4.8 | 14.5 | 0.00 | 0.00 | 0.00 | 65 | 1018.9 |
| 20260501164011 | 18 | 208 | 4.8 | 16.1 | 0.00 | 0.00 | 0.00 | 64 | 1018.8 |
| 20260501163507 | 18 | 159 | 3.2 | 14.5 | 0.00 | 0.00 | 0.00 | 66 | 1018.9 |
| 20260501163006 | 18 | 202 | 4.8 | 14.5 | 0.00 | 0.00 | 0.00 | 66 | 1018.9 |
| 20260501162507 | 18 | 217 | 4.8 | 14.5 | 0.00 | 0.00 | 0.00 | 64 | 1019.0 |
| 20260501162006 | 19 | 135 | 4.8 | 14.5 | 0.00 | 0.00 | 0.00 | 64 | 1019.0 |
| 20260501161507 | 19 | 213 | 4.8 | 19.3 | 0.00 | 0.00 | 0.00 | 64 | 1019.0 |
| 20260501161006 | 19 | 281 | 8.0 | 17.7 | 0.00 | 0.00 | 0.00 | 63 | 1019.0 |
| 20260501160504 | 20 | 129 | 4.8 | 16.1 | 0.00 | 0.00 | 0.00 | 63 | 1019.0 |
| 20260501160107 | 20 | 204 | 6.4 | 16.1 | 0.00 | 0.00 | 0.00 | 63 | 1019.1 |
| 20260501155504 | 20 | 208 | 4.8 | 17.7 | 0.00 | 0.00 | 0.00 | 63 | 1019.1 |
| 20260501155004 | 20 | 140 | 4.8 | 17.7 | 0.00 | 0.00 | 0.00 | 64 | 1019.1 |
| 20260501154506 | 20 | 229 | 4.8 | 12.9 | 0.00 | 0.00 | 0.00 | 64 | 1019.1 |
| 20260501154003 | 20 | 158 | 4.8 | 14.5 | 0.00 | 0.00 | 0.00 | 64 | 1019.1 |
| 20260501153504 | 20 | 155 | 4.8 | 14.5 | 0.00 | 0.00 | 0.00 | 65 | 1019.1 |
| 20260501153006 | 20 | 188 | 8.0 | 14.5 | 0.00 | 0.00 | 0.00 | 66 | 1019.1 |
| 20260501152502 | 19 | 187 | 6.4 | 16.1 | 0.00 | 0.00 | 0.00 | 66 | 1019.1 |
| 20260501152002 | 19 | 166 | 4.8 | 12.9 | 0.00 | 0.00 | 0.00 | 67 | 1019.1 |
| 20260501151505 | 20 | 200 | 4.8 | 12.9 | 0.00 | 0.00 | 0.00 | 67 | 1019.1 |
| 20260501151003 | 20 | 156 | 4.8 | 16.1 | 0.00 | 0.00 | 0.00 | 66 | 1019.2 |
| 20260501150504 | 20 | 200 | 4.8 | 16.1 | 0.00 | 0.00 | 0.00 | 65 | 1019.2 |
| 20260501150002 | 20 | 181 | 4.8 | 16.1 | 0.00 | 0.00 | 0.00 | 64 | 1019.1 |
| 20260501145504 | 21 | 166 | 8.0 | 16.1 | 0.00 | 0.00 | 0.00 | 61 | 1019.1 |
| 20260501145004 | 22 | 94 | 4.8 | 17.7 | 0.00 | 0.00 | 0.00 | 58 | 1019.1 |
| 20260501144501 | 22 | 199 | 3.2 | 16.1 | 0.00 | 0.00 | 0.00 | 59 | 1019.0 |
| 20260501144001 | 22 | 211 | 4.8 | 16.1 | 0.00 | 0.00 | 0.00 | 58 | 1019.1 |
| 20260501143502 | 22 | 200 | 4.8 | 14.5 | 0.00 | 0.00 | 0.00 | 59 | 1019.1 |
| 20260501143102 | 22 | 163 | 3.2 | 14.5 | 0.00 | 0.00 | 0.00 | 60 | 1019.1 |
| 20260501142600 | 21 | 188 | 4.8 | 11.3 | 0.00 | 0.00 | 0.00 | 60 | 1019.0 |
| 20260501142059 | 21 | 229 | 3.2 | 11.3 | 0.00 | 0.00 | 0.00 | 59 | 1019.1 |
| 20260501142002 | 21 | 184 | 3.2 | 11.3 | 0.00 | 0.00 | 0.00 | 59 | 1019.1 |
| 20260501141633 | 21 | 200 | 3.2 | 12.9 | 0.00 | 0.00 | 0.00 | 60 | 1019.1 |
| 20260501141059 | 21 | 211 | 4.8 | 12.9 | 0.00 | 0.00 | 0.00 | 59 | 1019.1 |
| 20260501140558 | 21 | 162 | 1.6 | 16.1 | 0.00 | 0.00 | 0.00 | 58 | 1019.1 |
| 20260501140116 | 21 | 161 | 6.4 | 16.1 | 0.00 | 0.00 | 0.00 | 58 | 1019.1 |
| 20260501135559 | 21 | 238 | 4.8 | 12.9 | 0.00 | 0.00 | 0.00 | 57 | 1019.1 |
| 20260501135058 | 21 | 198 | 6.4 | 12.9 | 0.00 | 0.00 | 0.00 | 59 | 1019.1 |
| 20260501134600 | 21 | 186 | 4.8 | 11.3 | 0.00 | 0.00 | 0.00 | 57 | 1019.1 |
| 20260501134057 | 22 | 182 | 3.2 | 11.3 | 0.00 | 0.00 | 0.00 | 57 | 1019.1 |
| 20260501133557 | 22 | 179 | 1.6 | 9.7 | 0.00 | 0.00 | 0.00 | 54 | 1019.0 |
| 20260501133100 | 23 | 199 | 3.2 | 11.3 | 0.00 | 0.00 | 0.00 | 54 | 1019.0 |
| 20260501132557 | 22 | 82 | 3.2 | 17.7 | 0.00 | 0.00 | 0.00 | 54 | 1019.1 |
| 20260501132056 | 22 | 100 | 6.4 | 17.7 | 0.00 | 0.00 | 0.00 | 53 | 1019.1 |